Location: Gad�tanya
(48.0500°N, 20.8500°E)
Time: 11:54:56
(UTC+00:00)

Meteor 1-27 - Pass Details

Date: 05 July 2020
Orbit: 838 x 891 km, 81.3° (Epoch: 14 August)

Event Time Altitude Azimuth Distance (km) Brightness Sun altitude
Rises 20:23:03 0° 347° (NNW) 3,451 8.9 -12.8°
Reaches altitude 10° 20:25:28 10° 347° (NNW) 2,518 7.9 -13.0°
Maximum altitude 20:31:12 84° 261° (W) 886 4.3 -13.5°
Enters shadow 20:35:47 17° 174° (S) 2,082 5.7 -13.9°
